TIME,DELAY(SENSOR),PRES,OXYGEN,RAWTEMP,T(OPTODE),TCPHASE,FLUOR,BETA(BETA700),BETA(BETA412),BETA(BETA440),CDOM,C(CSC),ED(ED412.40),ED(ED444.00),ED(ED489.70),ED(ED554.30),LU(LU411.80),LU(LU443.40),LU(LU489.60),LU(LU554.10),COMP,TILTX,TILTY,CHECK
1380081691,5809,840.0900268554688000,43.9522705078125000,657.8234252929688000,4.6996021270751950,54.3827285766601560,53,99,86,79,79,15240,2147752832,2147425334,2148012086,2147873910,2147639433,2147058304,2148258157,2147197092,2799,3,13,63890
1380085287,5808,905.2700195312500000,49.1522407531738300,666.7062988281250000,4.4069399833679200,53.7427787780761700,52,101,87,78,79,15241,2147756717,2147422244,2148012077,2147875035,2147637394,2147063579,2148254573,2147199908,3497,4,13,820
1380088887,5805,917.8900146484375000,49.7917098999023440,670.1173706054688000,4.2943167686462400,53.6980094909668000,53,100,85,79,78,15239,2147753682,2147422555,2148013083,2147873590,2147640621,2147057060,2148257965,2147199241,125,3,13,50987
1380092487,5809,949.2199707031250000,50.1872100830078100,673.1610717773438000,4.1937179565429690,53.6871910095214840,52,99,83,77,79,15231,2147759177,2147423981,2148012973,2147875428,2147641590,2147053376,2148258715,2147200621,273,4,13,878
1380096087,5812,952.3300170898438000,50.0818786621093750,672.5474243164062000,4.2140097618103030,53.6895599365234400,52,120,80,78,78,15237,2147755090,2147422272,2148011456,2147874322,2147642761,2147054025,2148262080,2147199835,626,4,13,22249
1380099687,5806,962.0399780273438000,50.2103691101074200,673.2703247070312000,4.1901068687438965,53.6827888488769500,52,98,87,79,80,15234,2147758235,2147425078,2148011977,2147874048,2147641782,2147055177,2148257965,2147199158,3426,4,13,33034
1380103287,5811,990.0999755859375000,50.4443588256835940,674.5463867187500000,4.1478939056396480,53.6648902893066400,51,96,85,78,79,15229,2147755026,2147425106,2148013202,2147874230,2147640786,2147052617,2148256777,2147199058,3569,3,13,31856
1380106887,5809,992.7000122070312000,50.6395187377929700,674.5140991210938000,4.1489639282226560,53.6428794860839840,52,97,86,79,79,15230,2147756224,2147427053,2148013677,2147876141,2147637531,2147053897,2148261293,2147200018,3542,3,13,40155
1380110487,5811,990.6500244140625000,50.3814315795898440,674.5269165039062000,4.1485419273376465,53.6730117797851560,52,98,83,78,78,15231,2147759076,2147429202,2148016813,2147876498,2147641545,2147048758,2148260059,2147199323,430,4,13,13475
1380114087,5808,992.6500244140625000,50.1663703918457000,674.1923217773438000,4.1596112251281740,53.7023887634277340,52,96,84,79,79,15231,2147757193,2147427081,2148011995,2147874340,2147641929,2147055552,2148263195,2147197275,3568,4,13,55097
1380117687,5811,994.6500244140625000,50.2547683715820300,674.2791137695312000,4.1567401885986330,53.6909599304199200,52,99,84,78,79,15229,2147755657,2147427748,2148016658,2147876781,2147639213,2147050752,2148260845,2147198820,13,4,13,15684
1380121287,5811,1000.8699951171875000,50.3124389648437500,674.1381225585938000,4.1614022254943850,53.6800117492675800,53,98,86,79,78,15230,2147756297,2147427328,2148013961,2147874505,2147638884,2147056996,2148262994,2147200045,3467,4,13,55440
1380124887,5810,998.3099975585938000,49.9642295837402340,673.3911743164062000,4.1861100196838380,53.7142601013183600,52,95,86,78,78,15226,2147758043,2147427126,2148013540,2147877083,2147642057,2147056429,2148261348,2147195629,3589,3,13,32455
1380128487,5812,986.2199707031250000,50.1521186828613300,674.8645019531250000,4.1373691558837890,53.7137718200683600,53,98,88,77,78,15229,2147758500,2147427721,2148014573,2147875922,2147638464,2147060178,2148258541,2147202459,3354,4,13,45416
1380132087,5808,990.2999877929688000,50.7732505798339840,676.5438842773438000,4.0817852020263670,53.6459999084472660,53,96,82,79,78,15233,2147756818,2147426249,2148016045,2147874267,2147638390,2147057408,2148257846,2147199469,3478,4,13,40484
1380135687,5811,992.0000000000000000,50.7593383789062500,676.5573730468750000,4.0813369750976560,53.6453590393066400,52,99,82,78,79,15231,2147758582,2147425718,2148015725,2147874678,2147640813,2147053348,2148259456,2147200585,83,4,13,21922
1380139287,5808,994.2199707031250000,51.0988006591796900,676.5324096679688000,4.0821647644042970,53.6001701354980500,53,99,83,79,78,15216,2147757229,2147426486,2148014034,2147875986,2147644544,2147053705,2148258368,2147199168,411,4,13,32615
1380142887,5808,995.3200073242188000,50.6809005737304700,676.5419921875000000,4.0818481445312500,53.6582298278808600,51,96,86,79,80,15221,2147758281,2147425389,2148013961,2147870043,2147638125,2147054134,2148261312,2147202806,3312,3,13,16193
1380146487,5812,1000.6699829101562000,50.8460388183593750,676.4589233398438000,4.0845990180969240,53.6366615295410160,52,96,83,79,79,15222,2147757110,2147425298,2148014317,2147873846,2147637787,2147049965,2148260324,2147198217,730,4,13,58912
1380150087,5811,993.2100219726562000,50.1953010559082000,674.8853759765625000,4.1366791725158690,53.7072715759277340,52,98,86,78,79,15224,2147758253,2147426258,2148011593,2147876553,2147639936,2147057234,2148258194,2147198070,657,3,13,12303
1380153687,5804,994.3099975585938000,50.3085708618164060,676.1049804687500000,4.0963129997253420,53.7023200988769500,53,101,87,78,78,15220,2147760146,2147426934,2148012617,2147872585,2147643081,2147052982,2148258779,2147196196,2358,4,13,48405
1380157287,5808,992.6199951171875000,50.3712692260742200,675.0880737304688000,4.1299710273742680,53.6833114624023440,52,98,88,79,79,15211,2147756251,2147426633,2148014774,2147873462,2147637988,2147052288,2148258450,2147198582,453,4,13,50025
1380160887,5809,1005.3900146484375000,50.5546913146972660,675.0579833984375000,4.1309661865234375,53.6596984863281250,53,98,84,78,78,15218,2147758016,2147427638,2148013366,2147871625,2147639131,2147056374,2148261129,2147197293,2992,4,13,15372
1380164487,5810,1001.3200073242188000,49.8193893432617200,675.1295166015625000,4.1286029815673830,53.7607994079589840,53,98,85,80,78,15216,2147761152,2147426194,2148013065,2147872713,2147639826,2147052178,2148263222,2147201563,34,4,13,10431
1380168087,5808,1001.2000122070312000,49.9334297180175800,675.2141113281250000,4.1258010864257810,53.7471199035644500,52,100,86,78,80,15215,2147761188,2147424411,2148013056,2147872512,2147637120,2147053833,2148257920,2147199808,3338,4,13,50872
1380171687,5812,998.2199707031250000,49.6836204528808600,675.6544799804688000,4.1112251281738280,53.7837104797363300,52,95,86,78,79,15216,2147757147,2147423094,2148013238,2147872100,2147639131,2147047277,2148254326,2147195986,226,4,13,20428
1380175287,5811,999.0200195312500000,50.3273391723632800,676.4918212890625000,4.0835108757019040,53.7088394165039060,52,99,87,77,79,15216,2147755072,2147422345,2148012690,2147869120,2147640064,2147051986,2148258989,2147198966,426,4,13,45915
1380178887,5811,996.4600219726562000,51.9058799743652340,677.4498901367188000,4.0517849922180180,53.5073204040527340,52,98,85,78,80,15213,2147753792,2147423149,2148011776,2147872027,2147644251,2147055314,2148261613,2147197805,166,4,13,53766
1380182487,5809,992.2700195312500000,50.5283393859863300,676.4442138671875000,4.0850868225097660,53.6825790405273440,52,97,85,78,80,15213,2147759012,2147426834,2148016009,2147872950,2147640813,2147057609,2148261101,2147197613,735,4,13,27938
1380186087,5809,996.0800170898438000,50.4511489868164060,677.2968139648438000,4.0568561553955080,53.7023315429687500,52,98,85,79,79,15214,2147758619,2147425444,2148017636,2147873243,2147642322,2147051200,2148257234,2147197056,229,4,13,5467
1380189687,5809,1003.8800048828125000,50.9920997619628900,677.1115722656250000,4.0629878044128420,53.6210098266601560,53,99,82,77,79,15212,2147758866,2147426816,2148015753,2147874130,2147642642,2147057828,2148261558,2147197814,411,4,13,459
1380193287,5809,1010.9400024414062000,50.7474288940429700,675.4547119140625000,4.1178379058837890,53.6376609802246100,52,98,85,78,78,15211,2147757558,2147423670,2148012809,2147876251,2147644288,2147051328,2148259309,2147200649,3326,3,13,27606
1380196887,5807,1000.2100219726562000,49.8030204772949200,675.2620849609375000,4.1242117881774900,53.7624015808105500,53,98,85,79,79,15212,2147757430,2147425810,2148012836,2147874642,2147641051,2147057490,2148257618,2147198025,3560,4,13,41046
1380200487,5807,1002.3699951171875000,50.1301498413085940,676.7357177734375000,4.0754361152648930,53.7358016967773440,53,96,86,77,79,15211,2147756726,2147427401,2148012342,2147872987,2147641152,2147052315,2148258697,2147200557,3596,4,13,39740
1380204087,5810,1004.8300170898438000,50.7035293579101560,676.0164794921875000,4.0992431640625000,53.6528282165527340,53,100,85,79,78,15212,2147757531,2147427968,2148014116,2147875812,2147642459,2147054464,2148258084,2147200576,283,4,13,17190
1380207687,5809,1006.7399902343750000,50.2236595153808600,675.2822875976562000,4.1235451698303220,53.7057609558105500,52,96,81,78,79,15212,2147757677,2147424804,2148016950,2147876507,2147639277,2147056850,2148263323,2147202450,3531,4,13,52991
1380211287,5809,1005.5000000000000000,50.0494194030761700,675.2863769531250000,4.1234068870544430,53.7306098937988300,52,98,87,78,78,15208,2147757211,2147425325,2148015469,2147874587,2147640804,2147056768,2148260141,2147199625,252,4,13,59786
1380214887,5807,1006.4000244140625000,50.2303886413574200,674.9757080078125000,4.1336898803710940,53.7024497985839840,52,97,87,79,79,15210,2147757293,2147425152,2148012882,2147874029,2147641024,2147058276,2148258806,2147199652,3533,4,13,62851
1380218487,5810,1005.8200073242188000,50.6177291870117200,676.1801147460938000,4.0938282012939450,53.6621894836425800,51,99,84,78,80,15211,2147759424,2147425718,2148013659,2147873590,2147640493,2147057325,2148258176,2147201005,51,4,13,19550
1380222087,5810,995.1599731445312000,50.4065017700195300,676.4771728515625000,4.0839920043945310,53.6970100402832000,52,98,84,78,80,15212,2147757266,2147427840,2148013193,2147871716,2147643410,2147054555,2148262336,2147201206,105,4,13,36349
1380225355,5810,1004.9000244140625000,50.6335105895996100,676.3988037109375000,4.0865879058837890,53.6606407165527340,52,99,82,79,79,15263,2147758774,2147426221,2148015579,2147877385,2147639378,2147052251,2148260333,2147200265,3302,4,13,63036
